RH
85 85 84 85 84 83 82 81 81 82 83 85 88 91 92 94 95 95 96 97 98 99 99 98 98 99 99 99 100 100 100 100 100 100 100 100 100 100 100 100 98 98
79 78 77 74 73 72 71 70 69 69 69 71 74 77 81 86 89 90 92 93 94 96 96 96 96 97 97 97 98 98 99 99 99 100 100 100 100 100 100 100 100 100
69 67 65 62 60 59 59 58 58 56 55 57 58 60 64 70 74 78 82 85 86 88 90 92 94 94 95 95 96 96 98 99 99 99 99 100 100 100 100 100 100 100
58 55 52 50 48 47 46 45 45 44 42 41 41 43 45 50 56 61 65 69 72 75 78 83 86 89 91 92 93 94 95 96 97 97 97 99 99 99 99 99 99 100
46 44 41 38 35 33 32 32 33 32 30 28 27 27 28 30 35 40 43 47 50 55 59 64 71 77 81 84 86 89 92 93 94 94 95 96 97 98 98 97 97 98
36 34 33 30 28 26 24 24 25 24 23 23 21 20 19 19 20 23 25 27 29 34 37 41 47 54 62 70 74 78 82 87 89 90 92 94 95 95 96 96 95 96
37 33 32 30 27 26 24 24 23 22 22 21 19 18 17 17 17 16 16 17 18 20 23 26 30 34 39 47 54 59 65 73 79 84 86 88 91 91 93 95 94 95
45 37 33 32 29 28 27 26 25 25 23 20 20 19 17 17 16 15 15 14 14 15 17 22 28 33 33 35 41 47 48 52 63 73 77 76 80 85 89 93 94 93
47 41 37 34 32 31 29 27 26 25 23 22 22 21 20 19 18 17 16 14 14 14 15 20 28 36 43 48 61 69 63 56 57 61 63 61 63 70 75 84 91 93
52 48 43 38 37 35 32 30 28 26 25 24 24 23 21 21 19 18 17 15 16 14 15 22 28 36 50 62 80 92 88 83 81 76 73 67 61 60 59 63 73 82
59 54 49 44 41 38 34 33 30 29 28 26 26 24 23 22 21 20 20 18 19 17 17 28 36 45 62 77 91 97 91 92 97 96 94 86 74 66 58 51 52 56
62 56 54 50 45 41 37 34 32 30 30 28 28 27 25 25 23 23 23 21 22 20 19 30 42 55 75 93 100 98 90 92 99 100 99 93 81 73 63 53 46 40
68 59 57 53 49 45 40 37 34 32 31 30 31 30 29 29 26 26 27 25 25 23 20 27 39 54 79 97 101 100 95 95 99 100 97 91 84 76 65 54 45 39
74 66 62 58 54 50 45 41 38 34 33 32 32 32 33 34 32 30 29 27 27 26 23 25 30 48 79 98 100 100 99 97 100 100 95 91 87 79 69 55 42 38
76 70 66 62 59 55 50 46 41 38 37 35 35 36 35 35 34 32 31 29 28 27 26 25 24 39 75 99 100 99 100 99 100 98 94 92 87 81 73 60 44 40
79 71 67 64 62 58 53 49 45 43 42 40 39 39 37 37 35 33 33 32 31 29 28 28 23 32 70 100 101 99 101 100 99 98 95 90 83 80 78 68 55 47
78 71 68 65 64 61 57 53 49 46 45 45 45 44 42 41 39 38 37 34 34 32 29 30 25 32 72 103 100 98 102 99 99 98 92 84 81 86 86 78 69 59
77 74 72 68 67 65 62 58 53 48 47 47 49 51 48 46 46 46 45 41 40 36 33 35 27 31 71 102 100 99 102 99 99 94 84 81 84 92 93 83 77 72
78 77 75 70 69 67 63 60 54 51 53 53 54 55 54 53 54 54 54 53 51 46 45 48 36 35 74 103 100 100 102 98 97 88 80 88 96 97 94 84 79 76
79 78 75 71 69 65 61 58 54 52 57 57 57 59 62 62 61 60 61 64 65 58 56 61 48 45 81 107 99 99 103 98 94 87 83 93 98 94 89 83 78 75
80 78 75 70 67 63 58 56 52 50 55 59 60 65 71 70 66 66 67 70 75 69 63 66 58 50 77 105 101 98 103 97 91 90 87 89 89 83 80 77 72 73
80 77 74 68 65 62 56 53 52 50 56 63 66 68 73 72 67 70 74 75 79 77 69 71 69 54 64 94 104 100 101 98 92 89 85 82 80 78 77 74 70 73
78 74 71 66 62 58 54 53 53 55 61 69 71 70 74 76 74 75 81 82 82 82 76 75 77 65 60 83 103 102 100 101 96 90 84 78 75 79 85 80 73 80
75 71 67 63 60 57 55 56 58 64 70 73 75 75 74 78 79 77 80 84 84 84 81 77 79 74 67 80 100 102 99 102 101 93 85 78 75 82 90 87 79 84
70 67 63 60 59 58 60 65 71 77 82 80 80 81 78 78 80 77 76 81 83 83 82 79 78 74 71 82 100 104 99 102 104 94 86 87 89 88 90 91 89 86
66 64 61 61 66 69 72 79 83 85 87 85 83 84 82 80 81 80 77 78 80 80 80 78 77 74 71 76 90 101 101 101 102 96 91 97 101 95 90 95 95 90
Wind_Speed
28 29 29 29 28 28 28 27 28 30 30 30 30 30 29 28 26 26 27 26 25 25 24 23 23 22 22 22 21 21 21 21 21 19 17 17 16 14 12 11 9 9
29 30 30 30 29 28 28 29 29 31 31 30 30 29 28 26 26 25 25 26 26 25 24 24 23 23 23 23 23 23 23 23 23 22 20 20 20 19 17 14 12 10
29 30 30 29 29 28 29 30 30 30 30 29 29 29 27 26 25 25 25 25 25 25 25 24 24 23 23 24 24 25 25 25 25 24 23 22 22 21 21 19 17 15
29 30 30 30 29 30 30 30 30 29 29 29 29 28 27 26 25 25 25 24 25 25 25 24 24 23 23 23 23 25 25 25 25 25 25 24 23 23 23 21 20 18
31 32 31 31 31 31 31 31 30 29 29 29 28 28 27 26 25 25 25 25 24 24 24 24 24 23 23 23 23 23 24 24 24 24 25 25 24 24 24 23 22 21
34 33 33 33 33 33 32 32 30 29 29 28 28 27 27 27 26 25 25 24 24 24 24 24 24 24 23 23 23 24 23 23 23 23 24 25 24 23 23 23 23 23
35 34 34 33 33 33 33 32 30 29 29 27 27 27 26 26 26 25 24 24 23 23 24 24 24 24 23 22 23 23 23 22 21 22 23 23 23 22 22 22 23 23
33 35 34 34 34 34 33 32 30 29 28 27 27 27 26 26 25 24 23 23 23 23 23 23 24 24 23 22 22 23 23 22 21 21 21 21 21 22 22 21 21 22
33 35 35 35 36 35 33 32 30 28 27 27 27 26 25 25 24 24 23 22 22 22 22 22 22 23 23 23 23 23 23 22 21 21 21 21 21 21 21 20 20 20
33 34 35 36 36 35 33 32 30 28 27 26 26 25 25 24 23 23 22 22 22 21 21 21 20 21 23 23 23 22 21 21 21 21 20 20 21 21 20 20 19 19
32 33 34 35 35 34 33 31 30 28 27 26 26 25 24 23 23 23 22 22 22 21 20 20 20 20 22 23 22 20 20 19 19 19 19 19 20 20 20 20 19 18
29 31 32 33 33 33 32 31 30 28 27 26 25 24 24 23 23 23 22 21 20 19 19 18 18 19 21 24 22 19 20 19 16 15 16 19 20 20 20 20 19 18
25 28 29 30 31 31 31 30 29 28 27 26 24 24 23 23 22 21 21 20 19 18 18 16 16 17 20 23 21 19 20 18 15 14 15 18 20 20 20 20 19 17
21 24 26 27 28 29 30 30 29 28 26 25 24 23 23 22 22 21 19 19 18 18 16 15 14 15 19 23 21 18 18 16 13 13 16 19 19 20 20 20 19 17
20 23 24 25 27 29 30 30 29 27 25 24 23 22 22 21 21 20 19 19 18 17 16 15 14 15 19 22 19 17 17 13 12 14 16 18 19 21 20 19 18 16
19 22 23 25 26 27 28 28 26 25 24 23 23 22 21 21 20 19 19 19 18 17 16 15 14 14 17 20 18 16 15 12 12 14 16 18 20 19 19 18 17 16
19 21 23 24 25 24 24 25 24 24 23 22 22 21 21 20 19 19 19 18 18 17 16 16 14 13 16 19 17 15 13 11 12 14 16 19 19 16 16 17 17 17
18 20 21 22 22 21 21 22 23 23 22 21 21 20 20 20 19 19 19 17 17 16 15 15 12 11 15 18 17 15 12 9 12 14 16 17 15 14 15 17 17 18
18 19 20 21 21 20 20 21 22 21 20 19 19 18 19 19 18 18 17 16 16 15 14 14 11 10 14 17 16 14 12 10 12 14 14 13 11 12 14 15 17 18
17 18 19 20 20 20 20 20 20 20 18 17 17 17 17 17 17 17 16 15 14 14 13 13 11 11 14 16 15 13 12 12 13 12 10 9 10 12 13 14 15 16
17 18 18 19 19 20 21 20 20 20 18 17 16 16 15 15 15 15 14 13 13 13 12 12 11 11 12 15 15 12 12 13 13 10 8 9 10 12 13 14 15 15
17 18 19 20 21 21 22 22 21 20 17 16 15 14 13 14 14 14 13 12 12 12 12 12 12 9 9 14 15 12 13 15 14 12 11 10 11 13 13 14 14 14
18 19 20 20 21 22 22 21 19 17 15 14 14 14 14 14 14 13 12 11 11 11 11 11 11 9 7 11 15 14 15 17 16 15 14 12 12 12 12 13 13 12
18 19 19 20 20 20 19 18 16 14 13 12 13 13 13 13 13 12 11 11 10 11 11 10 11 10 7 9 14 15 15 17 18 17 16 14 13 12 11 12 12 10
18 18 19 18 18 17 15 14 13 12 11 10 10 10 10 10 11 11 10 10 9 10 11 11 11 11 10 11 14 15 15 17 19 18 16 15 14 13 12 11 10 9
17 17 17 15 14 13 11 10 10 9 8 9 9 9 9 9 10 10 10 9 9 9 10 11 12 13 12 13 14 15 16 17 19 18 16 15 15 14 14 12 11 12
Wind_Direction
91 90 87 85 83 81 79 76 75 75 72 69 68 65 65 66 66 67 66 64 63 62 62 62 61 62 63 64 64 65 66 65 61 59 63 65 62 63 67 70 75 84
90 90 88 86 84 82 81 79 77 76 74 72 71 69 68 68 67 67 66 65 64 63 61 61 61 60 61 61 62 63 62 63 62 59 61 62 61 58 56 58 64 70
87 88 86 84 83 83 82 81 79 77 74 73 72 70 68 68 67 66 66 64 63 62 61 61 61 61 61 60 61 61 60 60 60 59 60 61 62 61 57 55 59 61
85 86 84 83 83 82 82 81 78 76 74 72 70 69 68 66 66 65 64 63 62 61 60 60 59 60 60 60 60 60 60 59 59 58 58 58 59 60 56 53 55 57
83 84 83 82 81 81 80 78 75 74 74 71 69 68 67 65 64 64 62 61 60 59 58 58 57 57 58 58 58 58 57 56 56 56 56 54 54 55 53 50 50 50
79 79 79 78 78 78 76 74 73 72 71 70 68 66 65 64 62 61 61 60 59 58 57 56 55 54 54 55 55 54 53 53 52 53 53 50 49 51 51 48 46 46
71 71 71 72 72 72 71 69 69 69 68 68 67 64 62 62 60 59 59 59 58 57 56 55 53 52 51 52 53 51 49 49 48 49 48 46 44 45 47 47 44 43
65 65 65 65 65 64 64 63 62 63 64 64 63 61 60 59 58 58 57 57 57 56 55 54 53 50 48 49 50 47 45 45 45 45 42 39 39 38 38 41 42 41
60 59 59 58 58 57 56 56 56 56 57 59 58 57 57 57 56 55 55 55 55 54 54 54 52 50 47 46 46 42 39 40 41 41 38 36 36 34 31 33 35 35
55 54 54 54 53 52 51 51 50 51 51 52 53 52 52 52 52 52 51 51 52 51 52 51 50 49 46 44 44 38 33 34 35 35 35 35 34 31 28 28 28 28
52 50 49 49 49 47 46 45 45 45 45 46 46 45 45 45 46 46 46 47 48 48 50 49 47 48 46 43 40 32 30 31 30 31 32 29 27 26 25 25 24 23
50 49 47 46 45 44 42 41 40 40 40 40 39 39 39 40 40 41 41 43 44 45 48 49 47 47 46 43 36 26 24 27 29 33 29 20 17 18 19 20 20 20
50 49 46 44 42 41 39 37 36 35 35 35 34 34 34 34 35 36 36 37 39 41 44 46 46 47 45 41 34 20 17 22 29 29 18 10 10 11 12 14 15 18
53 49 46 43 41 38 36 33 31 31 30 30 30 30 31 30 29 29 31 33 35 36 39 41 42 45 43 37 28 14 13 22 26 15 6 5 6 5 6 7 10 15
53 49 45 41 37 34 31 29 27 26 26 26 27 27 27 26 24 23 23 26 29 30 33 36 37 43 41 32 19 9 10 17 16 6 3 3 2 1 3 4 8 13
50 46 42 37 34 30 28 25 23 23 22 22 23 23 24 22 20 20 19 19 22 23 25 30 33 42 39 24 13 9 6 5 6 4 2 0 358 360 2 4 7 9
46 40 37 35 32 29 25 23 21 20 19 19 19 19 19 19 18 18 17 17 18 18 20 24 27 39 33 15 10 13 2 355 3 1 357 356 357 1 4 4 4 3
42 37 34 32 30 27 23 20 18 17 16 16 16 16 15 16 18 18 17 16 16 17 20 21 23 36 27 10 7 13 5 1 7 359 352 353 355 1 3 1 0 359
38 34 30 27 25 22 18 15 14 15 14 13 13 13 12 13 15 18 18 16 16 19 23 21 21 30 23 9 5 8 9 16 11 357 351 356 1 1 358 357 357 354
32 29 25 21 19 16 14 12 11 12 12 10 11 11 11 11 12 14 17 18 16 17 21 20 19 25 20 7 4 8 11 16 11 359 355 1 3 0 355 354 354 351
25 22 18 14 12 9 8 7 6 7 8 7 7 9 9 8 9 10 12 16 15 14 18 19 16 24 21 7 5 10 9 9 12 8 4 357 351 350 349 347 346 347
16 12 9 6 4 2 1 2 1 2 3 2 1 5 5 4 7 9 9 12 14 13 19 22 17 25 31 15 8 5 1 3 7 5 3 357 348 346 346 345 345 343
7 4 2 359 357 356 356 357 356 357 358 357 355 359 3 4 6 10 9 11 14 16 22 25 18 22 35 19 8 1 355 358 360 359 358 354 350 352 352 349 347 342
359 357 356 354 352 353 352 351 351 351 351 352 352 353 359 2 3 8 12 15 18 20 19 16 11 12 15 6 1 357 352 352 356 358 355 350 348 350 349 346 342 333
352 350 350 349 348 349 349 347 347 349 348 350 351 352 356 358 358 0 7 12 14 13 9 3 359 359 358 354 354 353 347 346 350 353 354 350 347 343 338 337 331 322
344 344 344 344 344 346 348 347 347 350 351 352 354 355 356 358 359 359 0 3 3 359 357 356 352 349 348 346 346 346 343 340 343 349 352 347 340 336 332 327 322 318